Tracking 35331 objects as of 16-Sep-2026
HD Live streaming from Space Station
objects crossing your sky now

MESHBED


MESHBED is no longer on orbit


NORAD ID: 44806
Int'l Code: 2019-081C
Launch date: November 27, 2019
Source: United States (US)
Launch site: SRIHARIKOTA (SRI)
Decay date: 2023-05-02
Your satellite tracking list
Your tracking list is empty




NASA's NSSDC Master Catalog

Two Line Element Set (TLE):
1 44806U 19081C   23121.12862922  .19420724  25425-5  39630-3 0  9998
2 44806  97.3164 195.8371 0012565 260.1750  99.8134 16.46113194190918
Source of the keplerian elements: AFSPC